Flag for U.S.A. Weather past 2 weeks in Washington DC, District of Columbia, U.S.A.

Now
82 °F

Sunny.


Feels Like: 83 °F
Forecast: 69 / 88 °F
Wind: 9 mph from Northwest

Location: Reagan National Airport

Current Time: Jul 31, 2015 at 9:42:59 AM

Latest Report: Jul 31, 2015 at 8:52 AM


Visibility: 10 mi

Pressure: 29.96 "Hg

Humidity: 51%

Dew point: 62 °F

Location of Washington DCLocation

Historic Weather in Washington DC — Graph

°F

Washington DC temperature yesterday

Maximum temperature yesterday: 90 °F (at 12:52 PM)
Minimum temperature yesterday: 79 °F (at 2:52 PM)
Average temperature yesterday: 83 °F

Past Weeks' High & Low Weather Summary

 TemperatureHumidityPressure
High96 °F (Jul 19, 3:52 PM)88% (Jul 19, 3:52 AM)30.10 "Hg (Jul 19, 3:52 AM)
Low69 °F (Jul 16, 7:52 AM)28% (Jul 24, 12:52 PM)29.63 "Hg (Jul 21, 5:52 PM)
Average82 °F62%29.93 "Hg
* Reported Jul 16 7:52 AM — Jul 31 7:52 AM, Washington DC, Weather by CustomWeather, © 2015

Note: Actual official high and low records may vary slightly from our data, if they occured in-between our weather recording intervals... More about our weather records

Advertising

Washington DC weather history for previous 24 hours

 ConditionsComfort  
Time TempWeatherWind HumidityBarometerVisibility
7:52 AM
Fri, Jul 31
80 °FPassing clouds.7 mph52%29.95 "Hg10 mi
6:52 AM76 °FPassing clouds.8 mph62%29.93 "Hg10 mi
5:52 AM74 °FPassing clouds.7 mph67%29.92 "Hg10 mi
4:52 AM76 °FClear.8 mph62%29.92 "Hg10 mi
3:52 AM76 °FClear.8 mph62%29.92 "Hg10 mi
2:52 AM78 °FClear.9 mph58%29.91 "Hg10 mi
1:52 AM81 °FClear.13 mph53%29.90 "Hg10 mi
12:52 AM80 °FPassing clouds.No wind71%29.91 "Hg10 mi
11:52 PM
Thu, Jul 30
81 °FClear.6 mph77%29.91 "Hg10 mi
10:52 PM82 °FPassing clouds.3 mph77%29.91 "Hg10 mi
9:52 PM82 °FPartly cloudy.No wind77%29.90 "Hg10 mi
8:52 PM83 °FBroken clouds.7 mph74%29.88 "Hg10 mi
7:52 PM83 °FBroken clouds.7 mph74%29.87 "Hg10 mi
6:52 PM84 °FBroken clouds.9 mph72%29.86 "Hg10 mi
5:52 PM84 °FBroken clouds.9 mph77%29.86 "Hg10 mi
4:52 PM83 °FBroken clouds.7 mph79%29.86 "Hg10 mi
3:52 PM81 °FBroken clouds.7 mph82%29.87 "Hg10 mi
3:02 PM81 °FLight rain. Overcast.9 mph79%29.88 "Hg7 mi
2:52 PM79 °FThunderstorms. More clouds than sun.7 mph84%29.89 "Hg7 mi
1:59 PM90 °FThunderstorms. Partly sunny.18 mph63%29.90 "Hg10 mi
12:52 PM90 °FBroken clouds.14 mph66%29.89 "Hg10 mi
11:52 AM89 °FPartly sunny.7 mph65%29.91 "Hg10 mi
10:52 AM88 °FPartly sunny.10 mph67%29.92 "Hg10 mi
9:52 AM84 °FBroken clouds.10 mph74%29.91 "Hg10 mi
Weather by CustomWeather, © 2015

See weather overviewHow to use our weather pages